Weather Roundup
Issued by NWS Springfield, MO

Home | Current Version | Previous Version | Text Only | Print | Product List | Glossary On
Versions: 1 2 3 4 5 6 7 8 9 10 11 12 13 14 15 16 17 18 19 20 21 22 23 24 25 26 27 28 29 30 31 32 33 34 35 36 37 38 39 40 41 42 43 44 45 46 47 48 49 50
000
NZUS99 KSGF 050707
HRRSGF

HOURLY WEATHER
NATIONAL WEATHER SERVICE SPRINGFIELD MO
200 AM CDT SUN JUL 05 2015

......SGF CWA......

CITY           SKY/WX    TMP DP  RH WIND       PRES   REMARKS
SPRINGFIELD    PTCLDY    72  68  87 SE6       30.03R
JOPLIN         PTCLDY    72  68  87 SE5       30.00S
WEST PLAINS    CLOUDY    71  68  90 CALM      30.07S FOG
ROLLA          PTCLDY    68  66  93 SE7       30.05R FOG
OSAGE BEACH    CLEAR     70  64  83 CALM      30.03S
BRANSON        LGT RAIN  70  68  94 CALM      30.05R

......SURROUNDING SGF CWA......

CITY           SKY/WX    TMP DP  RH WIND       PRES   REMARKS
CHANUTE        CLEAR     71  67  87 E6        29.99S
PARSONS        CLEAR     74  69  85 E3        29.99S
COFFEYVILLE    CLEAR     71  68  90 CALM      29.97S
EMPORIA        CLEAR     70  66  87 SE8       29.98S
GROVE OK       CLEAR     72  72 100 CALM      30.00S FOG
ROGERS AR      CLEAR     71  68  90 SE5       30.04S
SILOAM SPRINGS CLEAR     70  64  83 SE3         N/A
HARRISON AR    PTCLDY    69  69 100 SE5       30.05R FOG
NEAR YELLVILLE   N/A     70  66  88 CALM      30.01S

......KANSAS AND MISSOURI......

CITY           SKY/WX    TMP DP  RH WIND       PRES   REMARKS
KANSAS CTY INT CLEAR     68  64  87 S9        30.00F FOG
DOWNTOWN KC    CLEAR     74  64  71 SE6       30.00S
COLUMBIA       CLEAR     69  65  86 SE6       30.04S
SEDALIA        CLEAR     69  65  86 SE5       30.04R
ST JOSEPH      CLEAR     69  64  84 CALM      30.00S
ST LOUIS       CLEAR     70  62  76 CALM      30.05S HAZE
SPIRIT OF STL  CLEAR     65  64  97 CALM      30.04R FOG
KIRKSVILLE     CLEAR     62  60  93 S3        30.05R FOG
WICHITA        PTCLDY    76  65  68 SE9       29.96S
TOPEKA         CLEAR     70  65  84 E5        29.98F HAZE
OLATHE         CLEAR     68  64  87 SE5       30.01S

......TENNESSEE......

CITY           SKY/WX    TMP DP  RH WIND       PRES   REMARKS
MEMPHIS        MOCLDY    72  69  90 SW5       30.04S
NASHVILLE      LGT RAIN  69  69 100 W5        30.02S FOG

......ARKANSAS.......

CITY           SKY/WX    TMP DP  RH WIND       PRES   REMARKS
FAYETTEVILLE   FOG       67  67 100 CALM      30.03S VSB 3/4
FT SMITH       PTCLDY    76  72  87 S3        29.99S
LITTLE ROCK    PTCLDY    72  68  87 SE3       30.03R

......OKLAHOMA.......

CITY           SKY/WX    TMP DP  RH WIND       PRES   REMARKS
TULSA          PTCLDY    78  68  71 S8        29.96F
PONCA CITY     PTCLDY    78  71  79 SE9       29.95F
MCALESTER      CLEAR     71  68  90 CALM      30.00R
OKLAHOMA CITY  MOCLDY    74  71  91 S10       29.97F

......IOWA............

CITY           SKY/WX    TMP DP  RH WIND       PRES   REMARKS
DES MOINES     CLEAR     67  60  78 S7        29.99F
QUAD CITIES    CLEAR     63  59  87 CALM      30.03R

......ILLINOIS........

CITY           SKY/WX    TMP DP  RH WIND       PRES   REMARKS
QUINCY         CLEAR     69  63  81 S7        30.05R
CHICAGO        PTCLDY    66  57  72 CALM      30.04R SMOKE




USA.gov is the U.S. government's official web portal to all federal, state and local government web resources and services.